EHI
6 6 6 6 5 4 3 2 2 1 0 0 0 0 0 0 0 0 0 0 0 0 0 0 0 0 0 0 0 0 0 0 0 0 0 0 0 0 0 0 0 0 0
6 6 5 4 4 3 2 1 1 0 0 0 0 0 0 0 0 0 0 0 0 0 0 0 0 0 0 0 0 0 0 0 0 0 0 0 0 0 0 0 0 0 0
7 6 4 3 3 2 1 0 0 0 0 0 0 0 0 0 0 0 0 0 0 0 0 0 0 0 0 0 0 0 0 0 0 0 0 0 0 0 0 0 0 0 0
8 6 4 3 2 1 0 0 0 0 0 0 0 0 0 0 0 0 0 0 0 0 0 0 0 0 0 0 0 0 0 0 0 0 0 0 0 0 0 0 0 0 0
8 6 4 2 1 0 0 0 0 0 0 0 0 0 0 0 0 0 0 0 0 0 0 0 0 0 0 0 0 0 0 0 0 0 0 0 0 0 0 0 0 0 0
6 4 2 1 0 0 0 0 0 0 0 0 0 0 0 0 0 0 0 0 0 0 0 0 0 0 0 0 0 0 0 0 0 0 0 0 0 0 0 0 0 0 0
3 2 1 0 0 0 0 0 0 0 0 0 0 0 0 0 0 0 0 0 0 0 0 0 0 0 0 0 0 0 0 0 0 0 0 0 0 0 0 0 0 0 0
1 0 0 0 0 0 0 0 0 0 0 0 0 0 0 0 0 0 0 0 0 0 0 0 0 0 0 0 0 0 0 0 0 0 0 0 0 0 0 0 0 0 0
0 0 0 0 0 0 0 0 0 0 0 0 0 0 0 0 0 0 0 0 0 0 0 0 0 0 0 0 0 0 0 0 0 0 0 0 0 0 0 0 0 0 0
0 0 0 0 0 0 0 0 0 0 0 0 0 0 0 0 0 0 0 0 0 0 0 0 0 0 0 0 0 0 0 0 0 0 0 0 0 0 0 0 0 0 0
0 0 0 0 0 0 0 0 0 0 0 0 0 0 0 0 0 0 0 0 0 0 0 0 0 0 0 0 0 0 0 0 0 0 0 0 0 0 0 0 0 0 0
0 0 0 0 0 0 0 0 0 0 0 0 0 0 0 0 0 0 0 0 0 0 0 0 0 0 0 0 0 0 0 0 0 0 0 0 0 0 0 0 0 0 0
0 0 0 0 0 0 0 0 0 0 0 0 0 0 0 0 0 0 0 0 0 0 0 0 0 0 0 0 0 0 0 0 0 0 0 0 0 0 0 0 0 0 0
0 0 0 0 0 0 0 0 0 0 0 0 0 0 0 0 0 0 0 0 0 0 0 0 0 0 0 0 0 0 0 0 0 0 0 0 0 0 0 0 0 0 0
0 0 0 0 0 0 0 0 0 0 0 0 0 0 0 0 0 0 0 0 0 0 0 0 0 0 0 0 0 0 0 0 0 0 0 0 0 0 0 0 0 0 0
0 0 0 0 0 0 0 0 0 0 0 0 0 0 0 0 0 0 0 0 0 0 0 0 0 0 0 0 0 0 0 0 0 0 0 0 0 0 0 0 0 0 0
0 0 0 0 0 0 0 0 0 0 0 0 0 0 0 0 0 0 0 0 0 0 0 0 0 0 0 0 0 0 0 0 0 0 0 0 0 0 0 0 0 0 0
0 0 0 0 0 0 0 0 0 0 0 0 0 0 0 0 0 0 0 0 0 0 0 0 0 0 0 0 0 0 0 0 0 0 0 0 0 0 0 0 0 0 0
0 0 0 0 0 0 0 0 0 0 0 0 0 0 0 0 0 0 0 0 0 0 0 0 0 0 0 0 0 0 0 0 0 0 0 0 0 0 0 0 0 0 0
0 0 0 0 0 0 0 0 0 0 0 0 0 0 0 0 0 0 0 0 0 0 0 0 0 0 0 0 0 0 0 0 0 0 0 0 0 0 0 0 0 0 0
0 0 0 0 0 0 0 0 0 0 0 0 0 0 0 0 0 0 0 0 0 0 0 0 0 0 0 0 0 0 0 0 0 0 0 0 0 0 0 0 0 0 0
0 0 0 0 0 0 0 0 0 0 0 0 0 0 0 0 0 0 0 0 0 0 0 0 0 0 0 0 0 0 0 0 0 0 0 0 0 0 0 0 0 0 0
0 0 0 0 0 0 0 0 0 0 0 0 0 0 0 0 0 0 0 0 0 0 0 0 0 0 0 0 0 0 0 0 0 0 0 0 0 0 0 0 0 0 0
0 0 0 0 0 0 0 0 0 0 0 0 0 0 0 0 0 0 0 0 0 0 0 0 0 0 0 0 0 0 0 0 0 0 0 0 0 0 0 0 0 0 0
0 0 0 0 0 0 0 0 0 0 0 0 0 0 0 0 0 0 0 0 0 0 0 0 0 0 0 0 0 0 0 0 0 0 0 0 0 0 0 0 0 0 0
0 0 0 0 0 0 0 0 0 0 0 0 0 0 0 0 0 0 0 0 0 0 0 0 0 0 0 0 0 0 0 0 0 0 0 0 0 0 0 0 0 0 0
Wind_Speed
2 2 2 2 2 2 2 3 3 3 3 3 3 3 3 3 3 3 3 3 4 4 4 4 5 4 4 3 3 3 3 3 3 4 3 2 3 4 3 3 4 4 5
2 2 1 1 2 2 3 4 4 3 3 3 3 3 3 3 3 3 4 4 4 5 5 4 5 4 5 4 4 4 3 4 4 4 3 3 4 4 4 4 4 4 4
2 2 1 2 2 3 4 3 3 3 3 3 3 4 4 4 4 4 4 4 5 5 5 5 6 5 5 4 5 5 4 4 4 4 4 3 3 2 2 3 3 3 4
1 1 1 2 4 4 3 3 3 3 3 3 3 4 4 4 4 4 4 4 4 5 5 6 6 6 6 6 5 5 4 4 3 3 4 3 3 2 2 2 2 2 3
1 2 3 3 3 3 3 3 3 3 3 3 3 3 4 3 4 4 4 4 3 4 4 5 6 7 8 7 5 5 5 4 4 4 4 3 3 2 3 3 3 2 3
1 2 2 2 2 2 2 2 2 2 2 2 3 3 4 4 5 6 5 4 3 3 4 4 5 6 7 9 10 9 8 7 6 5 4 5 5 4 3 3 3 2 3
1 2 2 2 2 2 2 2 2 3 2 2 3 3 4 5 6 6 7 4 4 4 4 4 4 4 5 5 7 8 8 10 10 7 6 6 6 5 4 4 4 4 5
2 2 2 2 2 2 2 2 3 3 3 3 4 4 3 5 5 5 5 4 3 4 5 5 4 4 4 4 4 4 4 5 7 6 6 7 6 5 5 5 5 4 3
2 2 3 2 2 2 3 3 3 3 3 4 3 3 3 4 5 5 4 2 2 4 4 4 4 4 5 4 3 3 3 4 5 7 8 8 8 8 5 3 2 2 3
3 3 3 2 2 3 3 3 3 3 4 4 3 3 3 4 4 5 4 2 2 3 3 3 4 5 5 4 3 3 4 4 3 2 3 4 5 6 7 6 5 4 3
3 3 3 3 3 3 3 3 3 3 3 3 3 3 3 4 4 5 5 3 3 3 3 3 3 5 5 5 4 4 6 5 3 3 2 2 2 2 3 4 5 5 4
3 3 4 4 4 3 3 3 3 2 2 3 3 4 3 3 3 4 4 4 4 3 4 3 4 5 5 5 4 5 7 5 2 2 2 2 2 2 3 3 4 4 4
3 3 4 5 4 3 3 3 3 2 2 3 2 3 4 3 3 4 4 4 4 3 3 4 4 4 3 3 5 6 4 2 2 2 3 3 3 3 1 1 1 1 1
3 4 4 4 4 4 3 2 2 2 3 3 2 3 3 3 2 2 2 2 2 2 2 2 2 3 2 3 3 2 2 3 3 3 3 2 1 1 1 2 2 1 0
4 4 4 4 4 3 3 3 3 3 4 4 3 3 3 3 4 4 2 2 2 2 1 0 0 0 1 1 1 1 1 1 2 2 2 2 1 1 2 2 2 1 1
3 4 4 4 3 3 3 4 5 4 5 5 5 4 3 5 5 4 4 3 3 2 2 1 1 2 2 2 2 2 2 2 2 2 2 2 2 2 2 1 2 2 2
4 4 4 4 3 3 3 3 4 5 4 4 4 4 4 5 5 4 4 3 1 2 2 2 2 2 2 2 2 2 2 3 2 2 2 2 2 2 2 2 2 2 2
4 5 4 4 3 3 3 3 3 3 3 4 4 5 5 5 5 4 3 0 1 1 2 2 3 3 2 2 3 2 2 2 1 2 2 2 2 2 2 2 2 3 3
4 4 4 4 3 3 3 3 2 2 2 3 3 3 4 4 4 3 1 1 2 3 3 3 3 3 2 2 2 2 2 2 2 1 2 2 2 2 2 2 2 3 3
4 7 6 3 3 3 3 2 2 2 2 2 2 3 2 1 1 2 2 2 2 3 3 3 3 2 2 2 2 2 1 1 1 1 1 2 2 2 3 3 3 3 2
3 5 6 4 3 3 3 2 2 2 2 2 3 3 3 2 2 3 2 3 3 3 3 2 2 2 2 1 1 1 1 1 1 1 1 1 1 2 2 2 2 2 2
3 3 3 3 3 3 3 3 2 2 2 2 3 3 3 2 2 2 2 2 2 2 2 2 1 1 1 1 2 1 1 1 1 1 1 1 1 1 2 1 1 2 2
3 3 3 3 2 3 3 3 2 2 2 2 3 2 2 2 2 2 2 2 2 1 1 1 1 1 1 1 1 2 2 2 2 2 2 2 1 1 2 2 2 2 2
3 3 3 3 3 2 2 3 3 2 2 2 2 2 2 2 2 2 2 1 1 1 1 1 0 1 1 1 0 1 1 2 2 2 3 2 2 2 1 1 2 2 2
2 3 3 3 3 3 3 2 2 3 3 2 2 2 2 2 2 2 1 1 1 1 1 1 1 0 0 1 0 0 1 1 1 1 2 2 2 2 2 2 2 1 2
2 2 2 2 2 2 2 2 2 2 2 2 2 2 2 1 1 1 1 0 1 1 1 1 1 0 0 1 1 1 0 1 1 1 1 2 2 2 2 2 2 2 2
Wind_Direction
230 235 240 255 255 247 245 254 249 247 245 243 249 242 235 239 231 221 231 233 228 230 227 216 220 213 212 213 206 200 197 187 224 260 251 245 228 228 235 223 225 228 228
237 238 238 253 263 263 260 259 256 253 247 237 230 228 230 234 226 220 235 235 228 230 232 225 227 219 215 213 207 211 212 204 202 235 254 248 242 226 220 225 234 234 230
243 247 277 282 269 266 265 268 269 260 260 253 235 233 236 234 233 232 232 235 230 230 227 222 225 214 218 215 210 214 217 218 197 208 242 246 250 235 228 244 243 244 238
254 255 281 273 258 256 267 279 276 264 254 251 247 240 236 233 233 236 236 237 239 241 234 227 225 214 219 217 219 215 212 214 205 207 228 240 243 236 198 224 258 258 245
241 255 253 254 262 266 270 274 282 275 264 258 260 260 252 244 238 233 232 235 237 245 244 235 233 230 228 221 221 211 203 207 206 210 224 235 235 216 217 216 229 258 262
278 278 281 283 280 274 270 271 285 287 285 281 270 264 263 264 256 244 232 235 240 241 249 252 249 240 237 231 233 223 208 203 206 211 221 225 237 226 218 210 209 221 261
315 299 292 290 282 271 271 282 278 277 280 277 274 265 261 266 259 249 238 227 233 240 245 250 257 251 240 231 236 234 228 224 213 207 214 226 228 218 202 213 214 211 231
328 316 307 294 276 280 294 298 286 276 272 265 269 267 264 272 260 247 244 237 238 244 241 240 241 248 242 228 225 230 236 236 226 216 216 226 226 218 202 205 209 215 249
325 310 301 293 283 289 291 291 283 283 282 274 268 267 266 276 264 252 239 231 245 257 254 242 228 230 241 229 203 215 246 267 258 234 226 230 233 229 210 181 187 186 235
296 289 289 295 284 270 266 275 277 275 275 282 283 276 265 266 265 254 234 202 234 256 266 256 239 233 239 229 195 200 230 253 254 270 258 248 236 231 214 199 196 194 208
299 309 306 295 282 266 266 271 281 289 298 296 292 292 282 267 271 266 244 209 221 239 253 261 252 241 238 234 216 214 230 239 234 229 243 255 244 225 220 206 197 194 198
316 322 310 298 295 296 285 284 285 290 295 293 294 301 297 281 274 274 258 243 231 217 237 246 248 245 236 234 232 236 242 241 221 214 227 246 243 237 228 216 207 212 213
328 316 302 301 302 301 281 279 290 288 280 281 281 288 296 296 287 278 269 266 248 227 242 247 250 246 236 235 236 238 238 219 203 209 226 238 234 227 211 203 210 204 247
315 307 304 303 304 308 296 273 270 274 273 272 268 272 285 296 295 293 283 278 272 253 260 268 264 253 254 253 256 251 226 214 205 216 227 234 222 203 203 190 190 178 178
312 307 310 303 293 293 289 271 260 253 239 238 247 241 250 279 279 269 258 265 256 240 223 121 28 295 279 273 276 270 244 220 211 221 215 223 224 214 218 205 184 159 169
309 304 300 297 292 285 285 298 288 273 273 256 247 240 253 260 276 286 289 279 267 203 138 172 226 230 235 242 247 259 248 229 220 211 209 213 218 217 220 205 176 170 197
295 293 294 295 291 288 287 288 301 310 310 295 283 275 258 273 281 282 287 286 258 162 162 219 234 236 240 242 242 240 245 238 214 201 207 219 224 220 208 205 194 183 204
295 293 293 282 281 284 284 284 278 282 300 302 298 290 279 276 277 277 275 301 301 233 233 236 242 241 238 240 244 244 248 239 213 209 216 220 213 204 204 209 200 194 207
299 294 292 288 284 284 289 295 291 283 274 283 299 311 298 288 294 293 230 211 238 248 243 244 245 241 242 242 238 232 230 230 227 219 221 218 210 197 208 216 207 201 200
296 301 306 296 294 298 302 304 304 294 280 276 276 282 295 320 308 286 252 251 242 248 248 248 248 245 241 239 232 221 216 222 228 229 237 235 228 213 210 213 207 205 206
286 300 308 309 304 296 295 291 282 278 273 276 273 270 261 246 257 264 258 253 248 250 254 251 250 246 238 229 228 214 206 220 234 237 234 240 237 233 226 211 208 212 209
284 288 290 294 299 305 303 292 277 275 275 270 279 289 283 271 259 263 269 264 255 253 257 251 246 238 222 209 201 199 208 229 251 260 248 240 237 228 219 213 219 222 202
281 292 301 300 299 301 304 305 301 293 292 280 276 275 268 260 259 261 266 273 279 278 274 254 235 245 229 205 190 189 207 233 242 239 233 229 223 213 205 209 217 228 212
272 278 285 295 299 299 298 295 289 286 287 271 265 266 264 263 268 272 265 269 279 287 285 271 256 240 209 175 175 215 230 242 242 228 213 208 216 218 204 204 212 207 208
278 279 282 287 293 298 301 300 297 300 304 294 285 278 276 280 286 284 275 262 282 315 349 6 344 293 209 147 168 257 245 240 235 225 202 190 204 215 207 210 208 212 210
291 291 290 291 291 294 298 299 300 301 303 301 303 301 289 286 287 293 305 350 30 13 1 8 345 354 31 29 19 338 320 323 294 264 190 175 185 207 209 211 208 208 213